Regional Weather Roundup
Issued by NWS

Home | Current Version | Previous Version | Graphics & Text | Print | Product List | Glossary On
Versions: 1 2 3 4 5 6 7 8 9 10 11 12 13 14 15 16 17 18 19 20 21 22 23 24 25 26 27 28 29 30 31 32 33 34 35 36 37 38 39 40 41 42 43 44 45 46 47 48 49 50
000
ASUS43 KDMX 281106
RWRIA

WEATHER ROUNDUP FOR IOWA
NATIONAL WEATHER SERVICE DES MOINES IA
500 AM CST TUE FEB 28 2017

NOTE: "FAIR" INDICATES FEW OR NO CLOUDS BELOW 12,000 FEET WITH NO
SIGNIFICANT WEATHER AND/OR OBSTRUCTIONS TO VISIBILITY.

* - THESE STATIONS ARE NOT NWS STATIONS...THUS NOT UNDER NWS
QUALITY CONTROL.  THEY ALSO DO NOT REPORT WEATHER SUCH
AS PRECIPITATION OR FOG.

IAZ001>003-012>014-020>022-031>034-043>046-281200-
   NORTHWEST IOWA

CITY           SKY/WX    TMP DP  RH WIND       PRES   REMARKS
CARROLL *      CLOUDY    37  37 100 E6        29.59F WCI  33
CHEROKEE *     CLEAR     32  31  97 N5        29.62R WCI  28
DENISON *      CLOUDY    37  34  87 NE8       29.57S WCI  31
LE MARS *      CLEAR     32  30  93 N6        29.63R WCI  26
SHELDON *      CLOUDY    34  34 100 NE10      29.61S WCI  26
SIOUX CITY     PTCLDY    33  29  85 N6        29.60S WCI  28
SPENCER        CLEAR     31  28  89 E7        29.63F WCI  24
STORM LAKE *   MOCLDY    36  32  87 E7        29.62S WCI  30
$$

IAZ055>058-069>071-079>083-090>094-281200-
   SOUTHWEST IOWA

CITY           SKY/WX    TMP DP  RH WIND       PRES   REMARKS
ATLANTIC *     CLOUDY    50  46  87 S3        29.58S
AUDUBON *      CLOUDY    41  37  87 CALM      29.60S
CLARINDA *     CLOUDY    57  55  94 SW13      29.61F
COUNCIL BLFS * CLOUDY    50  50 100 SW10      29.57R
CRESTON *      CLOUDY    50  50 100 S10       29.62R
HARLAN  *      CLOUDY    39  39 100 CALM      29.61S
LAMONI         CLOUDY    56  52  86 S12       29.63R
RED OAK *      CLOUDY    54  52  94 S9        29.58S
SHENANDOAH *   CLOUDY    55  52  88 S17G24    29.58S
$$

IAZ047>049-059>061-072>074-084-281200-
   CENTRAL IOWA

CITY           SKY/WX    TMP DP  RH WIND       PRES   REMARKS
AMES           CLOUDY    41  39  93 CALM      29.62F
ANKENY *       CLOUDY    48  43  81 S5        29.64F
BOONE *        CLOUDY    39  39 100 E9        29.61F WCI  33
CHARITON *     CLOUDY    52  48  87 SE7       29.63F
DES MOINES     CLOUDY    53  44  71 SE9       29.63F
GRINNELL*      CLOUDY    49  45  85 SE9       29.68F
KNOXVILLE *    CLOUDY    50  45  81 SE7       29.63F
MARSHALLTOWN   MOCLDY    40  37  89 E8        29.65F WCI  34
NEWTON *       CLOUDY    48  45  87 SE13      29.64F
PELLA *        CLOUDY    51  45  80 SE9       29.67F
PERRY *        CLOUDY    42  38  87 E7        29.61F
$$

IAZ004>006-015-016-023>025-035-036-281200-
   NORTH CENTRAL IOWA

CITY           SKY/WX    TMP DP  RH WIND       PRES   REMARKS
ALGONA *       CLOUDY    37  36  93 SE12      29.65S WCI  30
CLARION *      PTCLDY    37  37 100 E13       29.65S WCI  29
ESTHERVILLE    CLOUDY    31  30  96 E3        29.64F
FORT DODGE *   CLOUDY    36  30  80 E5        29.64F WCI  32
MASON CITY     PTCLDY    38  34  85 E12       29.68F WCI  30
FOREST CITY *    N/A     36  34  93 SE9       29.66F WCI  29
WEBSTER CITY * LGT RAIN  37  34  87 E10       29.61F WCI  30
IOWA FALLS *   MOCLDY    37  35  91 E8        29.67F WCI  31
$$

IAZ007>011-017>019-026>030-037>042-050>054-066-281200-
   NORTHEAST IOWA

CITY           SKY/WX    TMP DP  RH WIND       PRES   REMARKS
CEDAR RAPIDS   CLOUDY    46  44  93 S10       29.69F
CHARLES CITY * CLOUDY    37  37 100 E15       29.68F WCI  28
DECORAH *      PTCLDY    37  37 100 E10       29.70F WCI  30
DUBUQUE        CLEAR     43  42  97 SE12      29.73F
MONTICELLO *   CLOUDY    43  41  93 SE5       29.72F
OELWEIN *      MOCLDY    39  39 100 E9        29.72R WCI  33
WATERLOO       MOCLDY    35  34  96 E6        29.70S WCI  30
$$

IAZ064-065-067-068-078-281200-
   EAST CENTRAL IOWA

CITY           SKY/WX    TMP DP  RH WIND       PRES   REMARKS
DAVENPORT      PTCLDY    49  46  90 S14       29.76F
IOWA CITY      CLOUDY    51  47  86 S10       29.73F
MUSCATINE *    CLOUDY    52  48  87 SE8       29.75F
QUAD CITIES    PTCLDY    51  47  86 S10       29.76F
$$

IAZ062-063-075>077-085>089-095>099-281200-
   SOUTHEAST IOWA

CITY           SKY/WX    TMP DP  RH WIND       PRES   REMARKS
BURLINGTON     PTCLDY    51  48  89 S10       29.74F
FAIRFIELD *    CLOUDY    52  46  82 SE8       29.70F
FORT MADISON * MOCLDY    54  48  82 S13       29.74F
KEOKUK *       CLOUDY    57  52  82 S15G25    29.72F
CENTERVILLE *  CLOUDY    57  54  88 S12G18    29.67F
OTTUMWA        CLOUDY    53  48  83 SE8       29.69S
WASHINGTON *   CLOUDY    50  48  93 SE10      29.73F
$$

ABBREVIATIONS USED IN REMARKS
   TC - TEMPERATURES IN CELSIUS
  WCI - WIND CHILL INDEX
   HX - HEAT INDEX
  VSB - VISIBILITY
$$




USA.gov is the U.S. government's official web portal to all federal, state and local government web resources and services.